Home   Weather   Noumea   Past weeks

Flag for New Caledonia Past Weather in Noumea, New Caledonia, New Caledonia — Yesterday and Last 2 Weeks

70 °F


Feels Like: 70 °F
Forecast: 67 / 80 °F
Wind: 2 mph from North

Location: La Tontouta Nlle-Caledonie

Current Time: Oct 28, 2016 at 11:12:53 PM

Latest Report: Oct 28, 2016 at 10:30 PM

Visibility: 10 mi

Pressure: 29.95 "Hg

Humidity: 69%

Dew Point: 59 °F

Location of NoumeaLocation

Past Weather in Noumea — Graph


Noumea Temperature Yesterday

Maximum temperature yesterday: 84 °F (at 12:00 PM)
Minimum temperature yesterday: 64 °F (at 5:00 AM)
Average temperature yesterday: 74 °F

High & Low Weather Summary for the Past Weeks

High88 °F (Oct 20, 1:30 PM)94% (Oct 15, 3:30 AM)30.07 "Hg (Oct 15, 3:30 AM)
Low57 °F (Oct 23, 5:00 AM)35% (Oct 24, 10:00 AM)29.83 "Hg (Oct 24, 2:30 PM)
Average73 °F67%29.97 "Hg
* Reported Oct 13 10:00 PM — Oct 28 10:00 PM, Noumea, Weather by CustomWeather, © 2016

Note: Actual official high and low records may vary slightly from our data, if they occured in-between our weather recording intervals... More about our weather records


Noumea Weather History for the Previous 24 Hours

Scroll right to see more
Time TempWeatherWind HumidityBarometerVisibility
10:00 PM
Fri, Oct 28
72 °FClear.2 mph61%29.95 "Hg10 mi
9:30 PM72 °FPassing clouds.3 mph61%29.95 "HgN/A
9:00 PM73 °FPassing clouds.3 mph57%29.95 "HgN/A
8:30 PM75 °FPassing clouds.5 mph54%29.95 "HgN/A
8:00 PM75 °FPassing clouds.6 mph54%29.95 "HgN/A
7:30 PM75 °FPassing clouds.5 mph50%29.92 "HgN/A
7:00 PM77 °FPassing clouds.5 mph47%29.92 "HgN/A
6:30 PM77 °FPassing clouds.7 mph47%29.89 "HgN/A
6:00 PM77 °FPartly sunny.8 mph47%29.89 "HgN/A
5:30 PM77 °FMostly cloudy.10 mph51%29.89 "HgN/A
5:00 PM79 °FPartly sunny.10 mph51%29.86 "HgN/A
4:30 PM81 °FPartly sunny.12 mph51%29.86 "HgN/A
4:00 PM79 °FPartly sunny.12 mph54%29.86 "HgN/A
3:30 PM88 °FPassing clouds.14 mph40%29.83 "HgN/A
3:00 PM88 °FPassing clouds.12 mph43%29.83 "HgN/A
2:30 PM86 °FPassing clouds.12 mph46%29.86 "HgN/A
2:00 PM86 °FWarm.14 mph49%29.86 "HgN/A
1:30 PM86 °FWarm.12 mph49%29.89 "HgN/A
1:00 PM86 °FPassing clouds.13 mph49%29.89 "HgN/A
12:30 PM84 °FScattered clouds.10 mph51%29.89 "HgN/A
12:00 PM84 °FPassing clouds.13 mph55%29.92 "HgN/A
11:30 AM84 °FPassing clouds.13 mph48%29.92 "HgN/A
11:00 AM84 °FPassing clouds.12 mph48%29.92 "HgN/A
10:30 AM82 °FPassing clouds.9 mph51%29.92 "HgN/A
10:00 AM82 °FPassing clouds.7 mph51%29.92 "HgN/A
9:30 AM82 °FPassing clouds.9 mph51%29.95 "HgN/A
9:00 AM81 °FPassing clouds.6 mph54%29.95 "HgN/A
8:30 AM79 °FSunny.3 mph54%29.95 "Hg10 mi
8:00 AM77 °FSunny.5 mph57%29.95 "Hg10 mi
7:30 AM73 °FSunny.2 mph69%29.95 "Hg10 mi
7:00 AM72 °FSunny.No wind73%29.95 "Hg10 mi
6:30 AM68 °FSunny.No wind78%29.95 "Hg10 mi
6:00 AM63 °FSunny.No wind88%29.95 "Hg10 mi
5:30 AM66 °FSunny.2 mph78%29.92 "Hg10 mi
5:00 AM64 °FClear.1 mph83%29.92 "Hg10 mi
4:30 AM64 °FClear.No wind83%29.92 "Hg10 mi
4:00 AM64 °FClear.2 mph83%29.92 "Hg10 mi
3:30 AM64 °FClear.3 mph88%29.92 "Hg10 mi
3:00 AM66 °FPassing clouds.No wind83%29.92 "HgN/A
2:30 AM66 °FClear.No wind83%29.92 "Hg10 mi
2:00 AM66 °FClear.3 mph83%29.92 "Hg10 mi
1:30 AM66 °FClear.2 mph83%29.95 "Hg10 mi
1:00 AM66 °FClear.1 mph83%29.95 "Hg10 mi
12:30 AM68 °FClear.1 mph78%29.95 "Hg10 mi
12:00 AM68 °FPassing clouds.1 mph78%29.95 "HgN/A
11:30 PM
Thu, Oct 27
70 °FPassing clouds.3 mph73%29.98 "HgN/A
11:00 PM70 °FPassing clouds.2 mph73%29.98 "HgN/A
Weather by CustomWeather, © 2016

See weather overviewHow to use our weather pages